| time (UTC) | temp F | wind direction | speed MPH | gust MPH | rain 1hr in | rain 24hr in | rain mn in | humidity % | barometer mb |
| 20260831212542 | 96 | 148 | 6.0 | 13.0 | 0.00 | 0.00 | 0.00 | 72 | 1013.7 |
| 20260831212041 | 96 | 92 | 4.0 | 12.0 | 0.00 | 0.00 | 0.00 | 72 | 1013.7 |
| 20260831211607 | 96 | 156 | 5.0 | 12.0 | 0.00 | 0.00 | 0.00 | 72 | 1013.7 |
| 20260831211042 | 96 | 123 | 6.0 | 12.0 | 0.00 | 0.00 | 0.00 | 73 | 1013.6 |
| 20260831210541 | 96 | 89 | 4.0 | 11.0 | 0.00 | 0.00 | 0.00 | 72 | 1013.6 |
| 20260831210104 | 96 | 144 | 4.0 | 11.0 | 0.00 | 0.00 | 0.00 | 73 | 1013.7 |
| 20260831205540 | 96 | 56 | 6.0 | 12.0 | 0.00 | 0.00 | 0.00 | 72 | 1013.8 |
| 20260831205041 | 96 | 114 | 6.0 | 12.0 | 0.00 | 0.00 | 0.00 | 72 | 1013.8 |
| 20260831204600 | 96 | 67 | 3.0 | 12.0 | 0.00 | 0.00 | 0.00 | 72 | 1013.7 |
| 20260831204041 | 96 | 85 | 6.0 | 12.0 | 0.00 | 0.00 | 0.00 | 72 | 1013.8 |
| 20260831203540 | 96 | 90 | 4.0 | 12.0 | 0.00 | 0.00 | 0.00 | 72 | 1013.9 |
| 20260831203101 | 96 | 92 | 5.0 | 11.0 | 0.00 | 0.00 | 0.00 | 72 | 1013.9 |
| 20260831202541 | 95 | 106 | 4.0 | 11.0 | 0.00 | 0.00 | 0.00 | 73 | 1014.0 |
| 20260831202039 | 95 | 132 | 6.0 | 11.0 | 0.00 | 0.00 | 0.00 | 72 | 1014.1 |
| 20260831201605 | 95 | 123 | 2.0 | 10.0 | 0.00 | 0.00 | 0.00 | 73 | 1014.1 |
| 20260831201042 | 96 | 102 | 5.0 | 10.0 | 0.00 | 0.00 | 0.00 | 72 | 1014.1 |
| 20260831200542 | 96 | 131 | 3.0 | 10.0 | 0.00 | 0.00 | 0.00 | 72 | 1014.2 |
| 20260831200059 | 95 | 125 | 3.0 | 12.0 | 0.00 | 0.00 | 0.00 | 73 | 1014.2 |
| 20260831195540 | 94 | 100 | 3.0 | 12.0 | 0.00 | 0.00 | 0.00 | 73 | 1014.3 |
| 20260831195040 | 95 | 119 | 3.0 | 11.0 | 0.00 | 0.00 | 0.00 | 73 | 1014.2 |
| 20260831194636 | 95 | 117 | 3.0 | 11.0 | 0.00 | 0.00 | 0.00 | 73 | 1014.3 |
| 20260831194041 | 94 | 140 | 5.0 | 11.0 | 0.00 | 0.00 | 0.00 | 74 | 1014.4 |
| 20260831193542 | 94 | 115 | 5.0 | 10.0 | 0.00 | 0.00 | 0.00 | 74 | 1014.5 |
| 20260831193107 | 94 | 157 | 2.0 | 8.0 | 0.00 | 0.00 | 0.00 | 75 | 1014.6 |
| 20260831192540 | 94 | 112 | 4.0 | 8.0 | 0.00 | 0.00 | 0.00 | 73 | 1014.7 |
| 20260831192042 | 93 | 339 | 1.0 | 6.0 | 0.00 | 0.00 | 0.00 | 74 | 1014.7 |
| 20260831191602 | 93 | 22 | 2.0 | 9.0 | 0.00 | 0.00 | 0.00 | 74 | 1014.9 |
| 20260831191040 | 92 | 0 | 2.0 | 10.0 | 0.00 | 0.00 | 0.00 | 75 | 1015.1 |
| 20260831190540 | 93 | 96 | 6.0 | 10.0 | 0.00 | 0.00 | 0.00 | 75 | 1015.1 |
| 20260831190118 | 93 | 144 | 3.0 | 7.0 | 0.00 | 0.00 | 0.00 | 74 | 1015.2 |
| 20260831185542 | 93 | 171 | 2.0 | 7.0 | 0.00 | 0.00 | 0.00 | 75 | 1015.4 |
| 20260831185037 | 92 | 29 | 1.0 | 10.0 | 0.00 | 0.00 | 0.00 | 76 | 1015.6 |
| 20260831184605 | 92 | 44 | 4.0 | 10.0 | 0.00 | 0.00 | 0.00 | 75 | 1015.7 |
| 20260831184037 | 93 | 148 | 2.0 | 6.0 | 0.00 | 0.00 | 0.00 | 75 | 1015.8 |
| 20260831183537 | 93 | 315 | 1.0 | 7.0 | 0.00 | 0.00 | 0.00 | 74 | 1015.9 |
| 20260831183109 | 92 | 26 | 3.0 | 9.0 | 0.00 | 0.00 | 0.00 | 75 | 1015.9 |
| 20260831182537 | 91 | 159 | 5.0 | 9.0 | 0.00 | 0.00 | 0.00 | 76 | 1016.0 |
| 20260831182040 | 92 | 143 | 5.0 | 10.0 | 0.00 | 0.00 | 0.00 | 76 | 1016.0 |
| 20260831181604 | 92 | 89 | 4.0 | 10.0 | 0.00 | 0.00 | 0.00 | 76 | 1016.0 |
| 20260831181039 | 92 | 140 | 5.0 | 10.0 | 0.00 | 0.00 | 0.00 | 75 | 1016.2 |
| 20260831180542 | 92 | 71 | 1.0 | 8.0 | 0.00 | 0.00 | 0.00 | 76 | 1016.3 |
| 20260831180109 | 92 | 38 | 2.0 | 8.0 | 0.00 | 0.00 | 0.00 | 76 | 1016.4 |
| 20260831175536 | 91 | 124 | 0.0 | 4.0 | 0.00 | 0.00 | 0.00 | 77 | 1016.3 |
| 20260831175039 | 91 | 35 | 2.0 | 4.0 | 0.00 | 0.00 | 0.00 | 78 | 1016.3 |
| 20260831174556 | 90 | 286 | 1.0 | 6.0 | 0.00 | 0.00 | 0.00 | 78 | 1016.3 |
| 20260831174038 | 90 | 0 | 1.0 | 6.0 | 0.00 | 0.00 | 0.00 | 78 | 1016.3 |
| 20260831173537 | 89 | 47 | 2.0 | 6.0 | 0.00 | 0.00 | 0.00 | 79 | 1016.3 |
| 20260831173104 | 89 | 0 | 0.0 | 5.0 | 0.00 | 0.00 | 0.00 | 79 | 1016.3 |
| 20260831172537 | 89 | 0 | 1.0 | 5.0 | 0.00 | 0.00 | 0.00 | 79 | 1016.3 |
| 20260831172039 | 89 | 351 | 1.0 | 5.0 | 0.00 | 0.00 | 0.00 | 79 | 1016.3 |
| 20260831171603 | 89 | 0 | 1.0 | 5.0 | 0.00 | 0.00 | 0.00 | 79 | 1016.4 |
| 20260831171039 | 88 | 149 | 1.0 | 6.0 | 0.00 | 0.00 | 0.00 | 80 | 1016.5 |
| 20260831170540 | 88 | 323 | 2.0 | 6.0 | 0.00 | 0.00 | 0.00 | 80 | 1016.6 |
| 20260831170112 | 88 | 0 | 0.0 | 6.0 | 0.00 | 0.00 | 0.00 | 81 | 1016.7 |
| 20260831165540 | 87 | 0 | 2.0 | 6.0 | 0.00 | 0.00 | 0.00 | 81 | 1016.7 |
| 20260831165039 | 87 | 0 | 0.0 | 6.0 | 0.00 | 0.00 | 0.00 | 82 | 1016.7 |
| 20260831164609 | 87 | 310 | 0.0 | 6.0 | 0.00 | 0.00 | 0.00 | 82 | 1016.8 |
| 20260831164040 | 87 | 192 | 2.0 | 6.0 | 0.00 | 0.00 | 0.00 | 82 | 1016.9 |
| 20260831163539 | 86 | 352 | 2.0 | 5.0 | 0.00 | 0.00 | 0.00 | 82 | 1016.8 |
| 20260831163057 | 86 | 334 | 2.0 | 6.0 | 0.00 | 0.00 | 0.00 | 82 | 1016.9 |
| 20260831162540 | 86 | 95 | 2.0 | 6.0 | 0.00 | 0.00 | 0.00 | 83 | 1016.9 |
| 20260831162039 | 85 | 0 | 1.0 | 6.0 | 0.00 | 0.00 | 0.00 | 84 | 1016.9 |
| 20260831161556 | 85 | 80 | 1.0 | 6.0 | 0.00 | 0.00 | 0.00 | 84 | 1016.9 |
| 20260831161041 | 84 | 0 | 0.0 | 7.0 | 0.00 | 0.00 | 0.00 | 85 | 1016.9 |
| 20260831160540 | 85 | 63 | 2.0 | 7.0 | 0.00 | 0.00 | 0.00 | 84 | 1016.7 |
| 20260831160110 | 85 | 0 | 2.0 | 6.0 | 0.00 | 0.00 | 0.00 | 84 | 1016.6 |
| 20260831155537 | 85 | 11 | 1.0 | 9.0 | 0.00 | 0.00 | 0.00 | 83 | 1016.6 |
| 20260831155042 | 85 | 118 | 1.0 | 9.0 | 0.00 | 0.00 | 0.00 | 84 | 1016.6 |
| 20260831154706 | 84 | 115 | 5.0 | 9.0 | 0.00 | 0.00 | 0.00 | 84 | 1016.5 |
| 20260831154039 | 84 | 94 | 3.0 | 9.0 | 0.00 | 0.00 | 0.00 | 84 | 1016.3 |
| 20260831153541 | 84 | 107 | 2.0 | 7.0 | 0.00 | 0.00 | 0.00 | 85 | 1016.4 |
| 20260831153104 | 84 | 67 | 3.0 | 8.0 | 0.00 | 0.00 | 0.00 | 85 | 1016.4 |
| 20260831152538 | 83 | 0 | 0.0 | 8.0 | 0.00 | 0.00 | 0.00 | 86 | 1016.4 |
| 20260831152040 | 83 | 41 | 3.0 | 8.0 | 0.00 | 0.00 | 0.00 | 86 | 1016.5 |
| 20260831151605 | 82 | 59 | 2.0 | 9.0 | 0.00 | 0.00 | 0.00 | 87 | 1016.5 |
| 20260831151039 | 82 | 114 | 3.0 | 10.0 | 0.00 | 0.00 | 0.00 | 87 | 1016.4 |
| 20260831150539 | 82 | 54 | 5.0 | 10.0 | 0.00 | 0.00 | 0.00 | 87 | 1016.4 |
| 20260831150101 | 82 | 98 | 5.0 | 9.0 | 0.00 | 0.00 | 0.00 | 87 | 1016.4 |
| 20260831145539 | 81 | 108 | 2.0 | 9.0 | 0.00 | 0.00 | 0.00 | 88 | 1016.4 |
| 20260831145038 | 81 | 0 | 3.0 | 9.0 | 0.00 | 0.00 | 0.00 | 88 | 1016.3 |
| 20260831144558 | 81 | 104 | 5.0 | 9.0 | 0.00 | 0.00 | 0.00 | 88 | 1016.3 |
| 20260831144036 | 81 | 71 | 5.0 | 9.0 | 0.00 | 0.00 | 0.00 | 88 | 1016.3 |
| 20260831143540 | 81 | 91 | 5.0 | 9.0 | 0.00 | 0.00 | 0.00 | 88 | 1016.3 |
| 20260831143111 | 80 | 110 | 2.0 | 8.0 | 0.00 | 0.00 | 0.00 | 89 | 1016.2 |
| 20260831142540 | 80 | 124 | 3.0 | 8.0 | 0.00 | 0.00 | 0.00 | 89 | 1016.0 |
| 20260831142039 | 80 | 72 | 2.0 | 7.0 | 0.00 | 0.00 | 0.00 | 89 | 1016.0 |
| 20260831141612 | 80 | 113 | 3.0 | 7.0 | 0.00 | 0.00 | 0.00 | 89 | 1016.0 |
| 20260831141037 | 80 | 101 | 2.0 | 7.0 | 0.00 | 0.00 | 0.00 | 89 | 1015.8 |
| 20260831140541 | 80 | 68 | 2.0 | 7.0 | 0.00 | 0.00 | 0.00 | 90 | 1015.8 |
| 20260831140059 | 79 | 101 | 3.0 | 7.0 | 0.00 | 0.00 | 0.00 | 90 | 1015.8 |
| 20260831135539 | 80 | 109 | 3.0 | 8.0 | 0.00 | 0.00 | 0.00 | 90 | 1015.7 |
| 20260831135039 | 79 | 163 | 2.0 | 8.0 | 0.00 | 0.00 | 0.00 | 91 | 1015.6 |
| 20260831134608 | 79 | 90 | 3.0 | 8.0 | 0.00 | 0.00 | 0.00 | 91 | 1015.5 |
| 20260831134038 | 79 | 98 | 3.0 | 8.0 | 0.00 | 0.00 | 0.00 | 91 | 1015.6 |
| 20260831133536 | 78 | 118 | 2.0 | 7.0 | 0.00 | 0.00 | 0.00 | 91 | 1015.5 |
| 20260831133059 | 78 | 139 | 3.0 | 7.0 | 0.00 | 0.00 | 0.00 | 91 | 1015.4 |
| 20260831132537 | 79 | 123 | 2.0 | 5.0 | 0.00 | 0.00 | 0.00 | 91 | 1015.3 |
| 20260831132036 | 78 | 117 | 1.0 | 4.0 | 0.00 | 0.00 | 0.00 | 91 | 1015.2 |
| 20260831131559 | 78 | 0 | 1.0 | 4.0 | 0.00 | 0.00 | 0.00 | 92 | 1014.9 |
| 20260831131037 | 78 | 123 | 1.0 | 4.0 | 0.00 | 0.00 | 0.00 | 92 | 1014.7 |
| 20260831130537 | 78 | 98 | 1.0 | 4.0 | 0.00 | 0.00 | 0.00 | 93 | 1014.9 |
| 20260831130110 | 77 | 35 | 2.0 | 6.0 | 0.00 | 0.00 | 0.00 | 93 | 1014.9 |
| 20260831125539 | 77 | 85 | 2.0 | 6.0 | 0.00 | 0.00 | 0.00 | 94 | 1014.7 |
| 20260831125042 | 76 | 126 | 1.0 | 4.0 | 0.00 | 0.00 | 0.00 | 94 | 1014.7 |
| 20260831124609 | 76 | 127 | 2.0 | 4.0 | 0.00 | 0.00 | 0.00 | 94 | 1014.6 |
| 20260831124041 | 76 | 125 | 1.0 | 7.0 | 0.00 | 0.00 | 0.00 | 95 | 1014.6 |
| 20260831123538 | 76 | 109 | 2.0 | 7.0 | 0.00 | 0.00 | 0.00 | 95 | 1014.7 |
| 20260831123058 | 76 | 119 | 2.0 | 6.0 | 0.00 | 0.00 | 0.00 | 95 | 1014.7 |
| 20260831122544 | 76 | 69 | 1.0 | 7.0 | 0.00 | 0.00 | 0.00 | 95 | 1014.6 |
| 20260831122041 | 76 | 91 | 2.0 | 7.0 | 0.00 | 0.00 | 0.00 | 95 | 1014.6 |
| 20260831121602 | 76 | 121 | 4.0 | 7.0 | 0.00 | 0.00 | 0.00 | 95 | 1014.6 |
| 20260831121041 | 76 | 105 | 1.0 | 6.0 | 0.00 | 0.00 | 0.00 | 95 | 1014.7 |
| 20260831120541 | 76 | 138 | 2.0 | 4.0 | 0.00 | 0.00 | 0.00 | 95 | 1014.6 |
| 20260831120100 | 76 | 107 | 1.0 | 6.0 | 0.00 | 0.00 | 0.00 | 94 | 1014.4 |
| 20260831115538 | 76 | 112 | 2.0 | 6.0 | 0.00 | 0.00 | 0.00 | 94 | 1014.5 |
| 20260831115038 | 77 | 107 | 2.0 | 6.0 | 0.00 | 0.00 | 0.00 | 94 | 1014.4 |
| 20260831114558 | 77 | 101 | 1.0 | 4.0 | 0.00 | 0.00 | 0.00 | 94 | 1014.5 |
| 20260831114045 | 77 | 107 | 1.0 | 7.0 | 0.00 | 0.00 | 0.00 | 93 | 1014.5 |
| 20260831113541 | 77 | 110 | 2.0 | 7.0 | 0.00 | 0.00 | 0.00 | 93 | 1014.5 |
| 20260831113055 | 77 | 92 | 2.0 | 7.0 | 0.00 | 0.00 | 0.00 | 93 | 1014.4 |
| 20260831112541 | 77 | 131 | 3.0 | 5.0 | 0.00 | 0.00 | 0.00 | 93 | 1014.3 |
| 20260831112041 | 77 | 128 | 2.0 | 4.0 | 0.00 | 0.00 | 0.00 | 93 | 1014.1 |
| 20260831111603 | 77 | 0 | 0.0 | 5.0 | 0.00 | 0.00 | 0.00 | 93 | 1013.7 |
| 20260831111040 | 77 | 327 | 0.0 | 5.0 | 0.00 | 0.00 | 0.00 | 93 | 1013.5 |
| 20260831110541 | 77 | 13 | 0.0 | 5.0 | 0.00 | 0.00 | 0.00 | 93 | 1013.3 |
| 20260831110059 | 77 | 65 | 1.0 | 7.0 | 0.00 | 0.00 | 0.00 | 93 | 1013.2 |
| 20260831105541 | 77 | 68 | 0.0 | 7.0 | 0.00 | 0.00 | 0.00 | 93 | 1013.2 |
| 20260831105040 | 77 | 344 | 1.0 | 7.0 | 0.00 | 0.00 | 0.00 | 93 | 1013.1 |
| 20260831104553 | 78 | 62 | 1.0 | 11.0 | 0.00 | 0.00 | 0.00 | 93 | 1013.1 |
| 20260831104041 | 78 | 56 | 2.0 | 11.0 | 0.00 | 0.00 | 0.00 | 93 | 1013.1 |
| 20260831103541 | 78 | 68 | 3.0 | 11.0 | 0.00 | 0.00 | 0.00 | 93 | 1013.1 |
| 20260831103101 | 78 | 87 | 3.0 | 10.0 | 0.00 | 0.00 | 0.00 | 93 | 1013.1 |
| 20260831102542 | 78 | 44 | 4.0 | 10.0 | 0.00 | 0.00 | 0.00 | 92 | 1012.9 |
| 20260831102041 | 79 | 90 | 2.0 | 10.0 | 0.00 | 0.00 | 0.00 | 92 | 1012.9 |
| 20260831101617 | 79 | 101 | 3.0 | 10.0 | 0.00 | 0.00 | 0.00 | 92 | 1012.8 |
| 20260831101040 | 80 | 78 | 3.0 | 10.0 | 0.00 | 0.00 | 0.00 | 92 | 1013.0 |
| 20260831100540 | 80 | 30 | 4.0 | 10.0 | 0.00 | 0.00 | 0.00 | 92 | 1012.9 |
| 20260831100110 | 80 | 0 | 2.0 | 6.0 | 0.00 | 0.00 | 0.00 | 92 | 1012.9 |
| 20260831095541 | 80 | 82 | 2.0 | 6.0 | 0.00 | 0.00 | 0.00 | 92 | 1012.9 |
| 20260831095041 | 80 | 61 | 2.0 | 5.0 | 0.00 | 0.00 | 0.00 | 92 | 1013.0 |
| 20260831094556 | 80 | 52 | 2.0 | 5.0 | 0.00 | 0.00 | 0.00 | 92 | 1013.0 |
| 20260831094041 | 80 | 94 | 2.0 | 4.0 | 0.00 | 0.00 | 0.00 | 92 | 1013.2 |
| 20260831093543 | 80 | 55 | 0.0 | 3.0 | 0.00 | 0.00 | 0.00 | 92 | 1013.1 |
| 20260831093103 | 80 | 0 | 0.0 | 3.0 | 0.00 | 0.00 | 0.00 | 92 | 1013.2 |
| 20260831092541 | 80 | 0 | 0.0 | 3.0 | 0.00 | 0.00 | 0.00 | 92 | 1013.2 |
| 20260831092044 | 80 | 0 | 0.0 | 0.0 | 0.00 | 0.00 | 0.00 | 92 | 1013.2 |
| 20260831091600 | 80 | 0 | 0.0 | 0.0 | 0.00 | 0.00 | 0.00 | 92 | 1013.2 |
| 20260831091039 | 80 | 0 | 0.0 | 0.0 | 0.00 | 0.00 | 0.00 | 92 | 1013.4 |
| 20260831090541 | 80 | 0 | 0.0 | 0.0 | 0.00 | 0.00 | 0.00 | 92 | 1013.5 |
| 20260831090110 | 80 | 0 | 0.0 | 0.0 | 0.00 | 0.00 | 0.00 | 93 | 1013.5 |
| 20260831085541 | 80 | 0 | 0.0 | 2.0 | 0.00 | 0.00 | 0.00 | 93 | 1013.5 |
| 20260831085040 | 80 | 0 | 0.0 | 3.0 | 0.00 | 0.00 | 0.00 | 93 | 1013.6 |
| 20260831084556 | 80 | 0 | 0.0 | 4.0 | 0.00 | 0.00 | 0.00 | 93 | 1013.6 |
| 20260831084038 | 80 | 96 | 0.0 | 4.0 | 0.00 | 0.00 | 0.00 | 94 | 1013.7 |
| 20260831083540 | 80 | 0 | 0.0 | 4.0 | 0.00 | 0.00 | 0.00 | 94 | 1013.8 |
| 20260831083106 | 80 | 140 | 1.0 | 4.0 | 0.00 | 0.00 | 0.00 | 94 | 1013.8 |
| 20260831082541 | 80 | 101 | 0.0 | 4.0 | 0.00 | 0.00 | 0.00 | 94 | 1013.9 |
| 20260831082042 | 80 | 129 | 1.0 | 4.0 | 0.00 | 0.00 | 0.00 | 94 | 1014.0 |
| 20260831081558 | 80 | 108 | 1.0 | 4.0 | 0.00 | 0.00 | 0.00 | 94 | 1014.0 |
| 20260831081038 | 80 | 103 | 1.0 | 6.0 | 0.00 | 0.00 | 0.00 | 94 | 1014.2 |
| 20260831080540 | 80 | 144 | 2.0 | 6.0 | 0.00 | 0.00 | 0.00 | 94 | 1014.2 |
| 20260831080059 | 80 | 106 | 3.0 | 7.0 | 0.00 | 0.00 | 0.00 | 94 | 1014.2 |
| 20260831075541 | 80 | 150 | 2.0 | 7.0 | 0.00 | 0.00 | 0.00 | 95 | 1014.3 |
| 20260831075042 | 80 | 131 | 4.0 | 9.0 | 0.00 | 0.00 | 0.00 | 95 | 1014.4 |
| 20260831074605 | 80 | 117 | 4.0 | 10.0 | 0.00 | 0.00 | 0.00 | 95 | 1014.4 |
| 20260831074040 | 80 | 151 | 3.0 | 10.0 | 0.00 | 0.00 | 0.00 | 95 | 1014.5 |
| 20260831073539 | 80 | 101 | 4.0 | 10.0 | 0.00 | 0.00 | 0.00 | 95 | 1014.6 |
| 20260831073105 | 80 | 57 | 5.0 | 10.0 | 0.00 | 0.00 | 0.00 | 95 | 1014.6 |
| 20260831072540 | 80 | 102 | 3.0 | 9.0 | 0.00 | 0.00 | 0.00 | 95 | 1014.7 |
| 20260831072040 | 80 | 84 | 4.0 | 10.0 | 0.00 | 0.00 | 0.00 | 95 | 1014.9 |
| 20260831071605 | 81 | 97 | 4.0 | 10.0 | 0.00 | 0.00 | 0.00 | 95 | 1014.9 |
| 20260831071043 | 81 | 90 | 4.0 | 10.0 | 0.00 | 0.00 | 0.00 | 95 | 1014.9 |
| 20260831070541 | 81 | 108 | 4.0 | 9.0 | 0.00 | 0.00 | 0.00 | 95 | 1015.0 |
| 20260831070110 | 81 | 115 | 5.0 | 11.0 | 0.00 | 0.00 | 0.00 | 95 | 1015.1 |
| 20260831065541 | 81 | 134 | 4.0 | 11.0 | 0.00 | 0.00 | 0.00 | 95 | 1015.1 |
| 20260831065038 | 81 | 71 | 5.0 | 10.0 | 0.00 | 0.00 | 0.00 | 95 | 1015.3 |
| 20260831064601 | 81 | 67 | 5.0 | 10.0 | 0.00 | 0.00 | 0.00 | 95 | 1015.4 |
| 20260831064040 | 81 | 100 | 4.0 | 10.0 | 0.00 | 0.00 | 0.00 | 95 | 1015.6 |
| 20260831063538 | 81 | 95 | 5.0 | 10.0 | 0.00 | 0.00 | 0.00 | 95 | 1015.7 |
| 20260831063059 | 81 | 107 | 4.0 | 9.0 | 0.00 | 0.00 | 0.00 | 95 | 1015.9 |
| 20260831062540 | 81 | 90 | 5.0 | 9.0 | 0.00 | 0.00 | 0.00 | 94 | 1016.0 |
| 20260831062041 | 81 | 128 | 3.0 | 8.0 | 0.00 | 0.00 | 0.00 | 94 | 1015.9 |
| 20260831061601 | 81 | 78 | 3.0 | 8.0 | 0.00 | 0.00 | 0.00 | 94 | 1016.0 |
| 20260831061039 | 81 | 126 | 4.0 | 9.0 | 0.00 | 0.00 | 0.00 | 94 | 1016.0 |
| 20260831060541 | 81 | 159 | 3.0 | 9.0 | 0.00 | 0.00 | 0.00 | 94 | 1015.9 |
| 20260831060111 | 81 | 98 | 2.0 | 8.0 | 0.00 | 0.00 | 0.00 | 94 | 1016.1 |
| 20260831055541 | 81 | 49 | 2.0 | 8.0 | 0.00 | 0.00 | 0.00 | 94 | 1015.9 |
| 20260831055041 | 81 | 87 | 4.0 | 8.0 | 0.00 | 0.00 | 0.00 | 94 | 1016.1 |
| 20260831054602 | 82 | 95 | 2.0 | 8.0 | 0.00 | 0.00 | 0.00 | 93 | 1016.1 |
| 20260831054041 | 82 | 105 | 3.0 | 8.0 | 0.00 | 0.00 | 0.00 | 93 | 1016.1 |
| 20260831053541 | 82 | 71 | 4.0 | 8.0 | 0.00 | 0.00 | 0.00 | 93 | 1016.0 |
| 20260831053104 | 82 | 146 | 2.0 | 8.0 | 0.00 | 0.00 | 0.00 | 93 | 1016.0 |
| 20260831052540 | 82 | 86 | 4.0 | 8.0 | 0.00 | 0.00 | 0.00 | 93 | 1016.1 |
| 20260831052040 | 82 | 88 | 3.0 | 7.0 | 0.00 | 0.00 | 0.00 | 93 | 1016.2 |
| 20260831051623 | 82 | 97 | 4.0 | 8.0 | 0.00 | 0.00 | 0.00 | 93 | 1016.0 |
| 20260831051039 | 82 | 107 | 3.0 | 8.0 | 0.00 | 0.00 | 0.00 | 93 | 1016.1 |
| 20260831050541 | 82 | 86 | 4.0 | 10.0 | 0.00 | 0.00 | 0.00 | 93 | 1016.1 |
| 20260831050109 | 82 | 60 | 4.0 | 10.0 | 0.00 | 0.00 | 0.00 | 92 | 1016.2 |
| 20260831045540 | 82 | 104 | 4.0 | 9.0 | 0.00 | 0.00 | 0.00 | 92 | 1016.2 |
| 20260831045041 | 82 | 107 | 4.0 | 9.0 | 0.00 | 0.00 | 0.00 | 92 | 1016.3 |
| 20260831044604 | 82 | 79 | 6.0 | 10.0 | 0.00 | 0.00 | 0.00 | 92 | 1016.2 |
| 20260831044041 | 83 | 98 | 5.0 | 10.0 | 0.00 | 0.00 | 0.00 | 91 | 1016.2 |
| 20260831043541 | 83 | 41 | 2.0 | 10.0 | 0.00 | 0.00 | 0.00 | 91 | 1016.2 |
| 20260831043102 | 83 | 54 | 5.0 | 10.0 | 0.00 | 0.00 | 0.00 | 91 | 1016.1 |
| 20260831042541 | 83 | 86 | 2.0 | 9.0 | 0.00 | 0.00 | 0.00 | 91 | 1016.2 |
| 20260831042042 | 83 | 62 | 5.0 | 9.0 | 0.00 | 0.00 | 0.00 | 91 | 1016.2 |
| 20260831041607 | 83 | 77 | 4.0 | 10.0 | 0.00 | 0.00 | 0.00 | 91 | 1016.2 |
| 20260831041046 | 83 | 71 | 3.0 | 10.0 | 0.00 | 0.00 | 0.00 | 91 | 1016.2 |
| 20260831040541 | 83 | 15 | 4.0 | 10.0 | 0.00 | 0.00 | 0.00 | 91 | 1016.1 |
| 20260831040109 | 83 | 67 | 4.0 | 10.0 | 0.00 | 0.00 | 0.00 | 91 | 1016.0 |
| 20260831035542 | 83 | 57 | 4.0 | 11.0 | 0.00 | 0.00 | 0.00 | 91 | 1016.1 |
| 20260831035042 | 83 | 78 | 4.0 | 11.0 | 0.00 | 0.00 | 0.00 | 91 | 1016.0 |
| 20260831034618 | 83 | 34 | 4.0 | 11.0 | 0.00 | 0.00 | 0.00 | 91 | 1016.2 |
| 20260831034038 | 83 | 86 | 4.0 | 12.0 | 0.00 | 0.00 | 0.00 | 91 | 1016.1 |
| 20260831033541 | 83 | 47 | 5.0 | 12.0 | 0.00 | 0.00 | 0.00 | 91 | 1016.0 |
| 20260831033055 | 84 | 51 | 4.0 | 10.0 | 0.00 | 0.00 | 0.00 | 90 | 1016.0 |
| 20260831032538 | 84 | 71 | 3.0 | 10.0 | 0.00 | 0.00 | 0.00 | 90 | 1015.9 |
| 20260831032038 | 84 | 35 | 3.0 | 10.0 | 0.00 | 0.00 | 0.00 | 90 | 1015.8 |
| 20260831031600 | 84 | 17 | 4.0 | 12.0 | 0.00 | 0.00 | 0.00 | 90 | 1015.8 |
| 20260831031038 | 84 | 65 | 4.0 | 12.0 | 0.00 | 0.00 | 0.00 | 90 | 1015.7 |
| 20260831030541 | 84 | 70 | 3.0 | 12.0 | 0.00 | 0.00 | 0.00 | 90 | 1015.6 |
| 20260831030115 | 84 | 94 | 3.0 | 10.0 | 0.00 | 0.00 | 0.00 | 90 | 1015.5 |
| 20260831025540 | 84 | 86 | 4.0 | 12.0 | 0.00 | 0.00 | 0.00 | 90 | 1015.5 |
| 20260831025038 | 84 | 29 | 3.0 | 12.0 | 0.00 | 0.00 | 0.00 | 90 | 1015.3 |
| 20260831024639 | 85 | 80 | 6.0 | 11.0 | 0.00 | 0.00 | 0.00 | 89 | 1015.3 |
| 20260831024040 | 85 | 33 | 4.0 | 14.0 | 0.00 | 0.00 | 0.00 | 89 | 1015.2 |
| 20260831023541 | 85 | 61 | 6.0 | 14.0 | 0.00 | 0.00 | 0.00 | 89 | 1015.1 |
| 20260831023101 | 85 | 70 | 6.0 | 14.0 | 0.00 | 0.00 | 0.00 | 89 | 1014.9 |
| 20260831022541 | 85 | 42 | 5.0 | 12.0 | 0.00 | 0.00 | 0.00 | 89 | 1015.0 |
| 20260831022040 | 85 | 96 | 5.0 | 12.0 | 0.00 | 0.00 | 0.00 | 88 | 1014.9 |
| 20260831021608 | 86 | 70 | 4.0 | 13.0 | 0.00 | 0.00 | 0.00 | 88 | 1014.8 |
| 20260831021041 | 86 | 23 | 6.0 | 13.0 | 0.00 | 0.00 | 0.00 | 88 | 1014.7 |
| 20260831020539 | 86 | 40 | 5.0 | 11.0 | 0.00 | 0.00 | 0.00 | 88 | 1014.7 |
| 20260831020058 | 86 | 344 | 4.0 | 11.0 | 0.00 | 0.00 | 0.00 | 88 | 1014.5 |
| 20260831015541 | 86 | 52 | 3.0 | 11.0 | 0.00 | 0.00 | 0.00 | 87 | 1014.4 |
| 20260831015038 | 87 | 119 | 3.0 | 9.0 | 0.00 | 0.00 | 0.00 | 87 | 1014.2 |
| 20260831014617 | 87 | 82 | 1.0 | 7.0 | 0.00 | 0.00 | 0.00 | 87 | 1014.0 |
| 20260831014041 | 87 | 49 | 1.0 | 7.0 | 0.00 | 0.00 | 0.00 | 87 | 1013.8 |
| 20260831013541 | 88 | 321 | 1.0 | 6.0 | 0.00 | 0.00 | 0.00 | 86 | 1013.8 |
| 20260831013114 | 88 | 44 | 1.0 | 6.0 | 0.00 | 0.00 | 0.00 | 86 | 1013.7 |
| 20260831012543 | 88 | 18 | 1.0 | 5.0 | 0.00 | 0.00 | 0.00 | 86 | 1013.6 |
| 20260831012039 | 88 | 0 | 1.0 | 7.0 | 0.00 | 0.00 | 0.00 | 86 | 1013.5 |
| 20260831011559 | 88 | 0 | 2.0 | 9.0 | 0.00 | 0.00 | 0.00 | 86 | 1013.4 |
| 20260831011038 | 88 | 88 | 1.0 | 9.0 | 0.00 | 0.00 | 0.00 | 85 | 1013.4 |
| 20260831010541 | 89 | 341 | 1.0 | 9.0 | 0.00 | 0.00 | 0.00 | 85 | 1013.3 |
| 20260831010104 | 89 | 333 | 2.0 | 8.0 | 0.00 | 0.00 | 0.00 | 85 | 1013.2 |
| 20260831005543 | 89 | 163 | 1.0 | 10.0 | 0.00 | 0.00 | 0.00 | 85 | 1013.1 |
| 20260831005038 | 89 | 28 | 2.0 | 10.0 | 0.00 | 0.00 | 0.00 | 84 | 1013.1 |
| 20260831004600 | 90 | 24 | 1.0 | 10.0 | 0.00 | 0.00 | 0.00 | 84 | 1013.0 |
| 20260831004039 | 90 | 329 | 2.0 | 10.0 | 0.00 | 0.00 | 0.00 | 83 | 1013.1 |
| 20260831003544 | 90 | 310 | 3.0 | 10.0 | 0.00 | 0.00 | 0.00 | 83 | 1013.1 |
| 20260831003059 | 91 | 48 | 1.0 | 9.0 | 0.00 | 0.00 | 0.00 | 82 | 1013.1 |
| 20260831002539 | 91 | 85 | 3.0 | 10.0 | 0.00 | 0.00 | 0.00 | 81 | 1013.0 |
| 20260831002041 | 92 | 0 | 2.0 | 10.0 | 0.00 | 0.00 | 0.00 | 81 | 1013.0 |
| 20260831001604 | 92 | 360 | 3.0 | 10.0 | 0.00 | 0.00 | 0.00 | 79 | 1013.1 |
| 20260831001041 | 93 | 327 | 3.0 | 12.0 | 0.00 | 0.00 | 0.00 | 73 | 1013.1 |
| 20260831000540 | 93 | 68 | 3.0 | 13.0 | 0.00 | 0.00 | 0.00 | 73 | 1013.0 |
| 20260830235541 | 93 | 74 | 6.0 | 12.0 | 0.00 | 0.00 | 0.00 | 73 | 1013.0 |
| 20260830235041 | 93 | 82 | 4.0 | 12.0 | 0.00 | 0.00 | 0.00 | 73 | 1012.8 |
| 20260830234606 | 94 | 86 | 6.0 | 12.0 | 0.00 | 0.00 | 0.00 | 73 | 1012.9 |
| 20260830234042 | 94 | 77 | 4.0 | 12.0 | 0.00 | 0.00 | 0.00 | 73 | 1012.8 |
| 20260830233540 | 94 | 49 | 4.0 | 12.0 | 0.00 | 0.00 | 0.00 | 72 | 1012.9 |
| 20260830233057 | 94 | 130 | 6.0 | 12.0 | 0.00 | 0.00 | 0.00 | 72 | 1012.8 |
| 20260830232541 | 94 | 78 | 3.0 | 13.0 | 0.00 | 0.00 | 0.00 | 72 | 1012.7 |
| 20260830232038 | 94 | 67 | 6.0 | 14.0 | 0.00 | 0.00 | 0.00 | 72 | 1012.7 |
| 20260830231604 | 94 | 58 | 7.0 | 14.0 | 0.00 | 0.00 | 0.00 | 72 | 1012.9 |
| 20260830231043 | 94 | 110 | 6.0 | 14.0 | 0.00 | 0.00 | 0.00 | 72 | 1012.9 |
| 20260830230541 | 95 | 86 | 6.0 | 14.0 | 0.00 | 0.00 | 0.00 | 72 | 1012.9 |
| 20260830230104 | 95 | 11 | 5.0 | 12.0 | 0.00 | 0.00 | 0.00 | 72 | 1013.0 |
| 20260830225542 | 95 | 25 | 4.0 | 13.0 | 0.00 | 0.00 | 0.00 | 72 | 1013.0 |
| 20260830225041 | 95 | 69 | 8.0 | 14.0 | 0.00 | 0.00 | 0.00 | 72 | 1012.9 |
| 20260830224557 | 95 | 55 | 7.0 | 14.0 | 0.00 | 0.00 | 0.00 | 71 | 1012.9 |
| 20260830224041 | 95 | 87 | 6.0 | 13.0 | 0.00 | 0.00 | 0.00 | 71 | 1013.0 |
| 20260830223544 | 96 | 46 | 7.0 | 13.0 | 0.00 | 0.00 | 0.00 | 71 | 1013.0 |
| 20260830223056 | 96 | 65 | 3.0 | 12.0 | 0.00 | 0.00 | 0.00 | 71 | 1013.0 |
| 20260830222543 | 96 | 43 | 6.0 | 12.0 | 0.00 | 0.00 | 0.00 | 71 | 1012.9 |
| 20260830222042 | 96 | 96 | 5.0 | 12.0 | 0.00 | 0.00 | 0.00 | 70 | 1012.9 |
| 20260830221603 | 96 | 65 | 7.0 | 12.0 | 0.00 | 0.00 | 0.00 | 69 | 1012.9 |
| 20260830221038 | 96 | 34 | 5.0 | 12.0 | 0.00 | 0.00 | 0.00 | 70 | 1012.9 |
| 20260830220540 | 96 | 88 | 6.0 | 16.0 | 0.00 | 0.00 | 0.00 | 69 | 1013.0 |
| 20260830220103 | 96 | 86 | 5.0 | 16.0 | 0.00 | 0.00 | 0.00 | 69 | 1013.0 |
| 20260830215540 | 96 | 59 | 6.0 | 16.0 | 0.00 | 0.00 | 0.00 | 68 | 1013.0 |
| 20260830215042 | 96 | 54 | 6.0 | 14.0 | 0.00 | 0.00 | 0.00 | 68 | 1013.0 |
| 20260830214557 | 97 | 172 | 7.0 | 13.0 | 0.00 | 0.00 | 0.00 | 68 | 1013.1 |
| 20260830214044 | 97 | 102 | 5.0 | 18.0 | 0.00 | 0.00 | 0.00 | 68 | 1013.1 |
| 20260830213543 | 96 | 84 | 7.0 | 18.0 | 0.00 | 0.00 | 0.00 | 69 | 1013.2 |
| 20260830213059 | 96 | 104 | 8.0 | 13.0 | 0.00 | 0.00 | 0.00 | 69 | 1013.2 |